| time (UTC) | temp C | wind direction | speed KPH | gust KPH | rain 1hr cm | rain 24hr cm | rain mn cm | humidity % | barometer mb |
| 20260504100257 | 13 | 155 | 0.0 | 0.0 | 0.00 | 0.00 | 0.00 | 95 | 1016.7 |
| 20260504081651 | 15 | 153 | 0.0 | 0.0 | 0.00 | 0.00 | 0.00 | 90 | 1017.3 |
| 20260504081147 | 15 | 154 | 0.0 | 0.0 | 0.00 | 0.00 | 0.00 | 90 | 1017.1 |
| 20260504080644 | 15 | 153 | 0.0 | 0.0 | 0.00 | 0.00 | 0.00 | 89 | 1017.1 |
| 20260504080140 | 15 | 153 | 0.0 | 0.0 | 0.00 | 0.00 | 0.00 | 89 | 1017.3 |
| 20260504070108 | 16 | 137 | 0.0 | 0.0 | 0.00 | 0.00 | 0.00 | 85 | 1017.6 |
| 20260504050456 | 18 | 163 | 0.0 | 0.0 | 0.00 | 0.00 | 0.00 | 77 | 1018.2 |
| 20260504045953 | 18 | 168 | 0.0 | 0.0 | 0.00 | 0.00 | 0.00 | 77 | 1018.1 |
| 20260504045449 | 18 | 166 | 1.6 | 1.6 | 0.00 | 0.00 | 0.00 | 77 | 1018.1 |
| 20260504044946 | 18 | 127 | 0.0 | 1.6 | 0.00 | 0.00 | 0.00 | 77 | 1018.1 |
| 20260504044443 | 18 | 171 | 1.6 | 1.6 | 0.00 | 0.00 | 0.00 | 78 | 1018.0 |
| 20260504043940 | 18 | 178 | 1.6 | 1.6 | 0.00 | 0.00 | 0.00 | 79 | 1017.9 |
| 20260504043437 | 18 | 177 | 0.0 | 0.0 | 0.00 | 0.00 | 0.00 | 78 | 1018.1 |
| 20260504042935 | 18 | 174 | 1.6 | 1.6 | 0.00 | 0.00 | 0.00 | 79 | 1017.8 |
| 20260504042431 | 18 | 174 | 0.0 | 0.0 | 0.00 | 0.00 | 0.00 | 78 | 1018.2 |
| 20260504041928 | 18 | 173 | 0.0 | 0.0 | 0.00 | 0.00 | 0.00 | 78 | 1018.2 |
| 20260504041424 | 18 | 174 | 0.0 | 0.0 | 0.00 | 0.00 | 0.00 | 78 | 1017.9 |
| 20260504040920 | 18 | 174 | 0.0 | 1.6 | 0.00 | 0.00 | 0.00 | 77 | 1018.0 |
| 20260504040418 | 18 | 171 | 1.6 | 1.6 | 0.00 | 0.00 | 0.00 | 77 | 1018.0 |
| 20260504035914 | 18 | 158 | 0.0 | 0.0 | 0.00 | 0.00 | 0.00 | 76 | 1018.0 |
| 20260504035412 | 18 | 150 | 0.0 | 0.0 | 0.00 | 0.00 | 0.00 | 76 | 1018.0 |
| 20260504034908 | 18 | 129 | 0.0 | 0.0 | 0.00 | 0.00 | 0.00 | 76 | 1017.8 |
| 20260504034406 | 18 | 160 | 0.0 | 0.0 | 0.00 | 0.00 | 0.00 | 76 | 1017.9 |
| 20260504033903 | 18 | 158 | 0.0 | 0.0 | 0.00 | 0.00 | 0.00 | 76 | 1017.9 |
| 20260504033400 | 18 | 144 | 1.6 | 1.6 | 0.00 | 0.00 | 0.00 | 75 | 1017.7 |
| 20260504032857 | 18 | 173 | 0.0 | 0.0 | 0.00 | 0.00 | 0.00 | 76 | 1017.8 |
| 20260504032354 | 18 | 192 | 0.0 | 0.0 | 0.00 | 0.00 | 0.00 | 76 | 1017.6 |
| 20260504031850 | 18 | 159 | 0.0 | 0.0 | 0.00 | 0.00 | 0.00 | 76 | 1017.9 |
| 20260504031348 | 17 | 168 | 0.0 | 0.0 | 0.00 | 0.00 | 0.00 | 79 | 1017.9 |
| 20260504030844 | 17 | 171 | 0.0 | 0.0 | 0.00 | 0.00 | 0.00 | 76 | 1017.7 |
| 20260504030342 | 17 | 171 | 0.0 | 0.0 | 0.00 | 0.00 | 0.00 | 75 | 1017.8 |
| 20260504025837 | 18 | 171 | 0.0 | 0.0 | 0.00 | 0.00 | 0.00 | 74 | 1017.8 |
| 20260504025335 | 18 | 171 | 0.0 | 0.0 | 0.00 | 0.00 | 0.00 | 72 | 1017.8 |
| 20260504024831 | 18 | 171 | 0.0 | 0.0 | 0.00 | 0.00 | 0.00 | 73 | 1017.8 |
| 20260504024327 | 18 | 171 | 0.0 | 0.0 | 0.00 | 0.00 | 0.00 | 73 | 1017.6 |
| 20260504023824 | 18 | 171 | 0.0 | 0.0 | 0.00 | 0.00 | 0.00 | 72 | 1017.8 |
| 20260504023321 | 18 | 171 | 0.0 | 0.0 | 0.00 | 0.00 | 0.00 | 70 | 1017.8 |
| 20260504022817 | 18 | 171 | 0.0 | 0.0 | 0.00 | 0.00 | 0.00 | 74 | 1017.9 |
| 20260504022314 | 18 | 171 | 0.0 | 0.0 | 0.00 | 0.00 | 0.00 | 74 | 1017.8 |
| 20260504021810 | 18 | 167 | 0.0 | 0.0 | 0.00 | 0.00 | 0.00 | 73 | 1017.6 |
| 20260504021308 | 18 | 167 | 0.0 | 0.0 | 0.00 | 0.00 | 0.00 | 72 | 1017.6 |
| 20260504020805 | 19 | 167 | 0.0 | 0.0 | 0.00 | 0.00 | 0.00 | 72 | 1017.6 |
| 20260504020302 | 19 | 167 | 0.0 | 0.0 | 0.00 | 0.00 | 0.00 | 72 | 1017.5 |
| 20260504015757 | 20 | 167 | 0.0 | 0.0 | 0.00 | 0.00 | 0.00 | 72 | 1017.4 |
| 20260504015254 | 20 | 165 | 0.0 | 0.0 | 0.00 | 0.00 | 0.00 | 71 | 1017.4 |
| 20260504014750 | 20 | 165 | 0.0 | 0.0 | 0.00 | 0.00 | 0.00 | 70 | 1017.4 |
| 20260504014246 | 20 | 164 | 0.0 | 0.0 | 0.00 | 0.00 | 0.00 | 69 | 1017.2 |
| 20260504013744 | 20 | 170 | 0.0 | 0.0 | 0.00 | 0.00 | 0.00 | 68 | 1017.3 |
| 20260504013242 | 20 | 179 | 0.0 | 0.0 | 0.00 | 0.00 | 0.00 | 69 | 1017.3 |
| 20260504012738 | 20 | 180 | 0.0 | 1.6 | 0.00 | 0.00 | 0.00 | 69 | 1017.0 |
| 20260504012236 | 20 | 181 | 0.0 | 0.0 | 0.00 | 0.00 | 0.00 | 69 | 1017.1 |
| 20260504011732 | 20 | 179 | 0.0 | 0.0 | 0.00 | 0.00 | 0.00 | 70 | 1017.0 |
| 20260504011229 | 20 | 228 | 0.0 | 0.0 | 0.00 | 0.00 | 0.00 | 69 | 1016.9 |
| 20260504010725 | 20 | 173 | 0.0 | 0.0 | 0.00 | 0.00 | 0.00 | 68 | 1017.0 |
| 20260504010221 | 20 | 173 | 0.0 | 0.0 | 0.00 | 0.00 | 0.00 | 68 | 1016.9 |
| 20260504005718 | 20 | 183 | 0.0 | 0.0 | 0.00 | 0.00 | 0.00 | 67 | 1016.7 |
| 20260504005215 | 20 | 179 | 0.0 | 1.6 | 0.00 | 0.00 | 0.00 | 67 | 1017.0 |
| 20260504004713 | 20 | 182 | 0.0 | 1.6 | 0.00 | 0.00 | 0.00 | 66 | 1016.8 |
| 20260504004210 | 20 | 180 | 0.0 | 0.0 | 0.00 | 0.00 | 0.00 | 65 | 1016.7 |
| 20260504003706 | 20 | 180 | 0.0 | 0.0 | 0.00 | 0.00 | 0.00 | 66 | 1016.7 |
| 20260504003203 | 20 | 182 | 0.0 | 1.6 | 0.00 | 0.00 | 0.00 | 66 | 1016.8 |
| 20260504002700 | 20 | 179 | 0.0 | 0.0 | 0.00 | 0.00 | 0.00 | 66 | 1016.8 |
| 20260504002157 | 20 | 185 | 0.0 | 0.0 | 0.00 | 0.00 | 0.00 | 65 | 1016.6 |
| 20260504001655 | 20 | 196 | 0.0 | 0.0 | 0.00 | 0.00 | 0.00 | 64 | 1016.8 |
| 20260504001151 | 20 | 186 | 0.0 | 0.0 | 0.00 | 0.00 | 0.00 | 63 | 1016.8 |
| 20260504000648 | 21 | 151 | 0.0 | 1.6 | 0.00 | 0.00 | 0.00 | 62 | 1016.6 |
| 20260504000145 | 21 | 235 | 0.0 | 1.6 | 0.00 | 0.00 | 0.00 | 61 | 1016.6 |
| 20260503235643 | 21 | 184 | 0.0 | 0.0 | 0.00 | 0.00 | 0.00 | 60 | 1016.6 |
| 20260503235140 | 21 | 212 | 1.6 | 1.6 | 0.00 | 0.00 | 0.00 | 60 | 1016.7 |
| 20260503234638 | 21 | 171 | 1.6 | 1.6 | 0.00 | 0.00 | 0.00 | 61 | 1016.6 |
| 20260503234136 | 21 | 189 | 0.0 | 0.0 | 0.00 | 0.00 | 0.00 | 60 | 1016.7 |
| 20260503233632 | 21 | 231 | 1.6 | 3.2 | 0.00 | 0.00 | 0.00 | 61 | 1016.7 |
| 20260503233128 | 21 | 186 | 0.0 | 1.6 | 0.00 | 0.00 | 0.00 | 60 | 1016.6 |
| 20260503232625 | 21 | 208 | 1.6 | 1.6 | 0.00 | 0.00 | 0.00 | 56 | 1016.7 |
| 20260503232122 | 21 | 175 | 1.6 | 3.2 | 0.00 | 0.00 | 0.00 | 55 | 1016.8 |
| 20260503231620 | 22 | 205 | 1.6 | 1.6 | 0.00 | 0.00 | 0.00 | 54 | 1016.7 |
| 20260503231116 | 22 | 185 | 0.0 | 1.6 | 0.00 | 0.00 | 0.00 | 53 | 1016.6 |
| 20260503230614 | 22 | 177 | 1.6 | 1.6 | 0.00 | 0.00 | 0.00 | 53 | 1016.8 |
| 20260503230111 | 22 | 223 | 1.6 | 1.6 | 0.00 | 0.00 | 0.00 | 52 | 1016.6 |
| 20260503225608 | 22 | 182 | 0.0 | 1.6 | 0.00 | 0.00 | 0.00 | 52 | 1016.7 |
| 20260503225107 | 22 | 194 | 1.6 | 1.6 | 0.00 | 0.00 | 0.00 | 52 | 1016.7 |
| 20260503224605 | 22 | 182 | 1.6 | 3.2 | 0.00 | 0.00 | 0.00 | 51 | 1016.9 |
| 20260503224103 | 22 | 178 | 0.0 | 0.0 | 0.00 | 0.00 | 0.00 | 50 | 1016.6 |
| 20260503223601 | 22 | 194 | 1.6 | 3.2 | 0.00 | 0.00 | 0.00 | 49 | 1016.6 |
| 20260503223056 | 22 | 204 | 0.0 | 1.6 | 0.00 | 0.00 | 0.00 | 50 | 1016.6 |
| 20260503222554 | 22 | 207 | 3.2 | 3.2 | 0.00 | 0.00 | 0.00 | 50 | 1016.6 |
| 20260503222052 | 22 | 191 | 0.0 | 1.6 | 0.00 | 0.00 | 0.00 | 49 | 1016.7 |
| 20260503221550 | 22 | 177 | 0.0 | 1.6 | 0.00 | 0.00 | 0.00 | 49 | 1016.7 |
| 20260503221047 | 22 | 179 | 0.0 | 1.6 | 0.00 | 0.00 | 0.00 | 46 | 1016.5 |
| 20260503220543 | 22 | 169 | 0.0 | 1.6 | 0.00 | 0.00 | 0.00 | 47 | 1016.5 |
| 20260503220040 | 23 | 242 | 1.6 | 3.2 | 0.00 | 0.00 | 0.00 | 47 | 1017.0 |
| 20260503215537 | 23 | 211 | 1.6 | 1.6 | 0.00 | 0.00 | 0.00 | 49 | 1016.7 |
| 20260503215034 | 23 | 180 | 3.2 | 3.2 | 0.00 | 0.00 | 0.00 | 47 | 1016.8 |
| 20260503214533 | 23 | 177 | 0.0 | 1.6 | 0.00 | 0.00 | 0.00 | 47 | 1016.9 |
| 20260503214029 | 23 | 179 | 0.0 | 1.6 | 0.00 | 0.00 | 0.00 | 50 | 1016.9 |
| 20260503213528 | 23 | 178 | 1.6 | 1.6 | 0.00 | 0.00 | 0.00 | 50 | 1016.8 |
| 20260503213024 | 24 | 217 | 1.6 | 3.2 | 0.00 | 0.00 | 0.00 | 45 | 1017.1 |
| 20260503212521 | 24 | 180 | 1.6 | 3.2 | 0.00 | 0.00 | 0.00 | 43 | 1017.0 |
| 20260503212019 | 24 | 196 | 1.6 | 1.6 | 0.00 | 0.00 | 0.00 | 45 | 1017.2 |
| 20260503211515 | 25 | 118 | 3.2 | 3.2 | 0.00 | 0.00 | 0.00 | 38 | 1017.0 |
| 20260503211011 | 25 | 164 | 1.6 | 1.6 | 0.00 | 0.00 | 0.00 | 40 | 1017.2 |
| 20260503210508 | 25 | 178 | 1.6 | 1.6 | 0.00 | 0.00 | 0.00 | 39 | 1017.1 |
| 20260503210004 | 25 | 159 | 0.0 | 0.0 | 0.00 | 0.00 | 0.00 | 35 | 1017.1 |
| 20260503205501 | 25 | 77 | 0.0 | 1.6 | 0.00 | 0.00 | 0.00 | 36 | 1017.2 |
| 20260503204956 | 25 | 42 | 3.2 | 3.2 | 0.00 | 0.00 | 0.00 | 34 | 1017.1 |
| 20260503204454 | 25 | 94 | 1.6 | 3.2 | 0.00 | 0.00 | 0.00 | 36 | 1017.3 |
| 20260503203950 | 25 | 133 | 0.0 | 0.0 | 0.00 | 0.00 | 0.00 | 37 | 1017.3 |
| 20260503203448 | 24 | 81 | 4.8 | 4.8 | 0.00 | 0.00 | 0.00 | 39 | 1017.2 |
| 20260503202944 | 25 | 105 | 0.0 | 1.6 | 0.00 | 0.00 | 0.00 | 39 | 1017.4 |
| 20260503202443 | 25 | 186 | 1.6 | 3.2 | 0.00 | 0.00 | 0.00 | 36 | 1017.5 |
| 20260503201941 | 26 | 77 | 4.8 | 8.0 | 0.00 | 0.00 | 0.00 | 34 | 1017.5 |
| 20260503201438 | 25 | 83 | 3.2 | 4.8 | 0.00 | 0.00 | 0.00 | 36 | 1017.6 |
| 20260503200936 | 25 | 58 | 4.8 | 8.0 | 0.00 | 0.00 | 0.00 | 37 | 1017.6 |
| 20260503200432 | 25 | 102 | 0.0 | 1.6 | 0.00 | 0.00 | 0.00 | 36 | 1017.6 |
| 20260503195928 | 25 | 81 | 0.0 | 1.6 | 0.00 | 0.00 | 0.00 | 38 | 1017.5 |
| 20260503195426 | 25 | 98 | 1.6 | 3.2 | 0.00 | 0.00 | 0.00 | 36 | 1018.0 |
| 20260503194922 | 25 | 155 | 4.8 | 8.0 | 0.00 | 0.00 | 0.00 | 35 | 1018.2 |
| 20260503194419 | 25 | 167 | 0.0 | 0.0 | 0.00 | 0.00 | 0.00 | 37 | 1018.1 |
| 20260503193915 | 25 | 134 | 1.6 | 1.6 | 0.00 | 0.00 | 0.00 | 39 | 1018.2 |
| 20260503193410 | 25 | 163 | 0.0 | 0.0 | 0.00 | 0.00 | 0.00 | 37 | 1018.4 |
| 20260503192906 | 25 | 156 | 1.6 | 1.6 | 0.00 | 0.00 | 0.00 | 37 | 1018.4 |
| 20260503192403 | 25 | 245 | 1.6 | 3.2 | 0.00 | 0.00 | 0.00 | 38 | 1018.6 |
| 20260503191859 | 25 | 77 | 3.2 | 4.8 | 0.00 | 0.00 | 0.00 | 38 | 1018.7 |
| 20260503191356 | 25 | 147 | 1.6 | 3.2 | 0.00 | 0.00 | 0.00 | 35 | 1018.7 |
| 20260503190852 | 25 | 47 | 4.8 | 8.0 | 0.00 | 0.00 | 0.00 | 35 | 1018.8 |
| 20260503190350 | 25 | 137 | 1.6 | 1.6 | 0.00 | 0.00 | 0.00 | 37 | 1019.0 |
| 20260503185846 | 25 | 35 | 6.4 | 8.0 | 0.00 | 0.00 | 0.00 | 34 | 1019.0 |
| 20260503185342 | 25 | 88 | 1.6 | 1.6 | 0.00 | 0.00 | 0.00 | 36 | 1019.3 |
| 20260503184837 | 25 | 133 | 1.6 | 1.6 | 0.00 | 0.00 | 0.00 | 36 | 1019.3 |
| 20260503184333 | 25 | 152 | 1.6 | 3.2 | 0.00 | 0.00 | 0.00 | 33 | 1019.4 |
| 20260503183829 | 24 | 52 | 4.8 | 4.8 | 0.00 | 0.00 | 0.00 | 34 | 1019.2 |
| 20260503183326 | 24 | 89 | 1.6 | 3.2 | 0.00 | 0.00 | 0.00 | 34 | 1019.4 |
| 20260503182824 | 24 | 80 | 3.2 | 4.8 | 0.00 | 0.00 | 0.00 | 38 | 1019.6 |
| 20260503182323 | 25 | 140 | 0.0 | 1.6 | 0.00 | 0.00 | 0.00 | 34 | 1019.4 |
| 20260503181820 | 23 | 89 | 1.6 | 1.6 | 0.00 | 0.00 | 0.00 | 36 | 1019.5 |
| 20260503181317 | 23 | 216 | 1.6 | 3.2 | 0.00 | 0.00 | 0.00 | 35 | 1019.7 |
| 20260503180813 | 23 | 44 | 4.8 | 4.8 | 0.00 | 0.00 | 0.00 | 35 | 1019.9 |
| 20260503180311 | 24 | 86 | 4.8 | 4.8 | 0.00 | 0.00 | 0.00 | 33 | 1019.7 |
| 20260503175807 | 23 | 147 | 1.6 | 1.6 | 0.00 | 0.00 | 0.00 | 36 | 1019.7 |
| 20260503175305 | 24 | 125 | 1.6 | 1.6 | 0.00 | 0.00 | 0.00 | 36 | 1019.8 |
| 20260503174800 | 24 | 136 | 0.0 | 1.6 | 0.00 | 0.00 | 0.00 | 36 | 1019.7 |
| 20260503174259 | 23 | 79 | 0.0 | 1.6 | 0.00 | 0.00 | 0.00 | 37 | 1019.6 |
| 20260503173754 | 23 | 127 | 3.2 | 4.8 | 0.00 | 0.00 | 0.00 | 36 | 1019.5 |
| 20260503173250 | 23 | 75 | 1.6 | 3.2 | 0.00 | 0.00 | 0.00 | 37 | 1019.7 |
| 20260503172747 | 23 | 130 | 1.6 | 3.2 | 0.00 | 0.00 | 0.00 | 37 | 1019.9 |
| 20260503172244 | 23 | 52 | 8.0 | 9.7 | 0.00 | 0.00 | 0.00 | 35 | 1019.9 |
| 20260503171741 | 23 | 160 | 1.6 | 3.2 | 0.00 | 0.00 | 0.00 | 39 | 1020.0 |
| 20260503171238 | 23 | 112 | 4.8 | 9.7 | 0.00 | 0.00 | 0.00 | 38 | 1019.9 |
| 20260503170735 | 23 | 86 | 1.6 | 3.2 | 0.00 | 0.00 | 0.00 | 39 | 1019.9 |
| 20260503170231 | 23 | 102 | 4.8 | 4.8 | 0.00 | 0.00 | 0.00 | 40 | 1020.2 |
| 20260503160153 | 22 | 105 | 4.8 | 8.0 | 0.00 | 0.00 | 0.00 | 42 | 1020.7 |
| 20260503150623 | 21 | 32 | 1.6 | 1.6 | 0.00 | 0.00 | 0.00 | 55 | 1020.9 |
| 20260503150119 | 21 | 64 | 1.6 | 1.6 | 0.00 | 0.00 | 0.00 | 56 | 1021.0 |
| 20260503131013 | 18 | 98 | 4.8 | 8.0 | 0.00 | 0.00 | 0.00 | 61 | 1020.1 |
| 20260503130511 | 18 | 89 | 0.0 | 1.6 | 0.00 | 0.00 | 0.00 | 63 | 1020.1 |
| 20260503110401 | 14 | 130 | 0.0 | 0.0 | 0.00 | 0.00 | 0.00 | 81 | 1019.0 |